Home > Time Zones > World Clock > Weather > Norway > Ski > Past weeks

Flag for Norway Weather past 2 weeks in Ski, Norway

Now
45 °F

Scattered clouds.


Feels Like: 36 °F
Forecast: 37 / 61 °F
Wind: 21 mph from Northeast

Location: Oslo / Fornebu

Current Time: Apr 19, 2015 at 8:44:54 PM

Latest Report: Apr 19, 2015 at 7:50 PM


Visibility: N/A

Pressure: 30.48 "Hg

Humidity: 93%

Dew point: 43 °F

Location of SkiLocation

Historic Weather in Ski — Graph

°F

Ski temperature yesterday

Maximum temperature yesterday: 52 °F (at 1:50 PM)
Minimum temperature yesterday: 43 °F (at 10:20 PM)
Average temperature yesterday: 47 °F

Past Weeks' High & Low Weather Summary

 TemperatureHumidityPressure
High52 °F (Apr 18, 1:50 PM)100% (Apr 4, 10:20 PM)30.51 "Hg (Apr 4, 10:20 PM)
Low37 °F (Apr 12, 6:20 AM)42% (Apr 13, 10:20 AM)29.42 "Hg (Apr 11, 8:20 AM)
Average45 °F81%30.04 "Hg
* Reported Apr 4 7:20 PM — Apr 19 7:20 PM, Ski, Weather by CustomWeather, © 2015

Note: Actual official high and low records may vary slightly from our data, if they occured in-between our weather recording intervals... More about our weather records

Advertising

Ski weather history for previous 24 hours

 ConditionsComfort  
Time TempWeatherWind HumidityBarometerVisibility
7:20 PM
Sun, Apr 19
45 °FPassing clouds.20 mph93%30.48 "HgN/A
6:50 PM45 °FScattered clouds.21 mph93%30.48 "HgN/A
6:20 PM45 °FQuite cool.21 mph93%30.48 "HgN/A
5:50 PM45 °FQuite cool.23 mph93%30.45 "HgN/A
5:20 PM45 °FQuite cool.21 mph93%30.45 "HgN/A
4:50 PM45 °FQuite cool.22 mph87%30.48 "HgN/A
4:20 PM45 °FQuite cool.21 mph93%30.48 "HgN/A
3:50 PM45 °FQuite cool.22 mph87%30.48 "HgN/A
3:20 PM45 °FQuite cool.20 mph87%30.48 "HgN/A
2:50 PM45 °FQuite cool.18 mph87%30.48 "HgN/A
2:20 PM45 °FQuite cool.17 mph87%30.48 "HgN/A
1:50 PM45 °FQuite cool.17 mph87%30.48 "HgN/A
1:20 PM46 °FCool.17 mph82%30.48 "HgN/A
12:50 PM46 °FCool.14 mph82%30.48 "HgN/A
12:20 PM46 °FCool.16 mph82%30.51 "HgN/A
11:50 AM46 °FCool.18 mph76%30.48 "HgN/A
11:20 AM46 °FCool.17 mph82%30.51 "HgN/A
10:50 AM45 °FPassing clouds.20 mph87%30.48 "HgN/A
10:20 AM45 °FPassing clouds.20 mph81%30.48 "HgN/A
9:50 AM45 °FPassing clouds.22 mph81%30.48 "HgN/A
9:20 AM45 °FScattered clouds.23 mph87%30.48 "HgN/A
8:50 AM45 °FPartly sunny.23 mph81%30.48 "HgN/A
8:20 AM45 °FPartly sunny.24 mph81%30.48 "HgN/A
7:50 AM46 °FPartly sunny.23 mph76%30.48 "HgN/A
7:20 AM45 °FScattered clouds.25 mph81%30.45 "HgN/A
6:50 AM45 °FScattered clouds.25 mph81%30.45 "HgN/A
6:20 AM46 °FPassing clouds.24 mph76%30.45 "HgN/A
5:50 AM45 °FPassing clouds.23 mph81%30.45 "HgN/A
5:20 AM45 °FPassing clouds.22 mph81%30.45 "HgN/A
4:50 AM45 °FPassing clouds.22 mph81%30.45 "HgN/A
4:20 AM45 °FPassing clouds.22 mph81%30.45 "HgN/A
3:50 AM45 °FPassing clouds.23 mph81%30.45 "HgN/A
2:50 AM46 °FOvercast.21 mph76%30.48 "HgN/A
2:20 AM45 °FOvercast.23 mph81%30.45 "HgN/A
1:50 AM45 °FOvercast.21 mph87%30.48 "HgN/A
1:20 AM45 °FPassing clouds.22 mph87%30.48 "HgN/A
12:50 AM45 °FPassing clouds.21 mph81%30.48 "HgN/A
12:20 AM45 °FOvercast.20 mph81%30.48 "HgN/A
11:50 PM
Sat, Apr 18
45 °FOvercast.21 mph87%30.48 "HgN/A
11:20 PM45 °FOvercast.21 mph87%30.48 "HgN/A
10:50 PM45 °FOvercast.22 mph93%30.48 "HgN/A
10:20 PM43 °FOvercast.22 mph93%30.45 "HgN/A
9:50 PM45 °FPassing clouds.21 mph87%30.45 "HgN/A
9:20 PM45 °FPartly sunny.21 mph87%30.45 "HgN/A
8:50 PM45 °FPartly sunny.21 mph87%30.45 "HgN/A
8:20 PM45 °FPartly sunny.21 mph87%30.45 "HgN/A
Weather by CustomWeather, © 2015

See weather overviewHow to use our weather pages